This demonstration page uses our WeatherBlox Daily Observations layout. Learn more.

Left ArrowRight Arrow

Hourly Observations for September 19, 2022

Temp ( °F °C ) Dew Point ( °F °C ) Humidity (%) Winds ( mph kmh ) Pressure ( in mb ) Visibility ( mi km ) Precip ( " mm )
12:55 am 00:55 Clear 73 22.5 66 18.9 80 80 ENE 5 7 29.92 1013 10 16 0.00 0.00
1:55 am 01:55 Clear 71 21.9 64 17.7 77 77 NE 5 7 29.93 1014 10 16 0.00 0.00
2:55 am 02:55 Clear 70 21.3 63 17.1 77 77 N 3 6 29.95 1014 10 16 0.00 0.00
3:55 am 03:55 Clear 69 20.5 62 16.7 79 79 NNE 5 7 29.95 1014 10 16 0.00 0.00
4:55 am 04:55 Clear 68 19.8 62 16.4 81 81 NNE 3 6 29.96 1015 10 16 0.00 0.00
5:55 am 05:55 Clear 66 18.8 61 16 84 84 NE 6 9 29.96 1015 10 16 0.00 0.00
6:55 am 06:55 Clear 65 18.5 61 15.9 85 85 NE 6 9 29.97 1015 10 16 0.00 0.00
7:55 am 07:55 Sunny 67 19.4 61 16.2 82 82 Calm 29.97 1015 10 16 0.00 0.00
8:55 am 08:55 Sunny 71 21.6 64 17.6 78 78 E 8 13 29.97 1015 10 16 0.00 0.00
9:55 am 09:55 Sunny 75 23.8 66 19.1 75 75 ESE 12 19 29.97 1015 10 16 0.00 0.00
10:55 am 10:55 Sunny 79 25.9 68 20.2 71 71 ESE 10 17 29.96 1015 10 16 0.00 0.00
11:55 am 11:55 Sunny 82 27.9 70 20.9 66 66 ESE 12 19 29.94 1014 10 16 0.00 0.00
12:55 pm 12:55 Sunny 86 30.2 70 21.3 59 59 ESE 13 20 29.92 1013 10 16 0.00 0.00
1:55 pm 13:55 Sunny 89 31.5 71 21.6 56 56 SE 15 24 29.88 1012 10 16 0.00 0.00
2:55 pm 14:55 Sunny 89 31.4 71 21.5 56 56 SSE 15 24 29.87 1011 10 16 0.00 0.00
3:55 pm 15:55 Partly Cloudy 89 31.8 68 20 50 50 SSE 16 26 29.85 1011 10 16 0.00 0.00
4:55 pm 16:55 Mostly Cloudy 90 32.1 68 20 49 49 SSE 9 15 29.84 1010 10 16 0.00 0.00
5:55 pm 17:55 Mostly Cloudy 89 31.5 70 21.3 55 55 SE 10 17 29.83 1010 10 16 0.00 0.00
6:55 pm 18:55 Mostly Cloudy 88 30.9 69 20.8 55 55 ESE 5 7 29.83 1010 10 16 0.00 0.00
7:55 pm 19:55 Partly Cloudy 83 28.4 68 20.1 61 61 E 6 9 29.83 1010 10 16 0.00 0.00
8:55 pm 20:55 Clear 81 27.1 67 19.4 63 63 SE 5 7 29.85 1011 10 16 0.00 0.00
9:55 pm 21:55 Clear 78 25.3 67 19.2 69 69 SE 6 9 29.85 1011 10 16 0.00 0.00
10:55 pm 22:55 Partly Cloudy 76 24.7 64 17.9 66 66 SE 6 9 29.85 1011 10 16 0.00 0.00
11:55 pm 23:55 Partly Cloudy 76 24.3 63 17 64 64 ESE 5 7 29.85 1011 10 16 0.00 0.00

Powered by AerisWeather